This is the latest recevied weather packets stored in our database for station/object KJ5FA-9. If no packets are shown the sender has not sent any weather packets the latest 10 day(s).
| Time | Temp. | Humidity | Pressure | Rain* | Wind** | Luminosity | Snow |
|---|---|---|---|---|---|---|---|
| 1787387960 | 24.44° C | 83% | 1016.3 hPa | 0 mm | - | - | - |
| 1787386460 | 25° C | 82% | 1016.4 hPa | 0 mm | - | - | - |
| 1787386268 | 25° C | 82% | 1016.3 hPa | 0 mm | 0 m/s | - | - |
| 1787384960 | 25° C | 80% | 1016.3 hPa | 0 mm | - | - | - |
| 1787384468 | 25° C | 79% | 1016.7 hPa | 0 mm | 0 m/s | - | - |
| 1787383460 | 25.56° C | 79% | 1016.8 hPa | 0 mm | - | - | - |
| 1787382668 | 25.56° C | 78% | 1016.7 hPa | 0 mm | 0.45 m/s, 64° | - | - |
| 1787381960 | 25.56° C | 78% | 1017.1 hPa | 0 mm | - | - | - |
| 1787380868 | 25.56° C | 79% | 1016.9 hPa | 0 mm | 0 m/s | - | - |
| 1787380460 | 25.56° C | 78% | 1017.1 hPa | 0 mm | - | - | - |
| 1787379068 | 26.11° C | 76% | 1017.3 hPa | 0 mm | 0.45 m/s, 357° | - | - |
| 1787378960 | 26.11° C | 76% | 1017.3 hPa | 0 mm | - | - | - |
| 1787377461 | 26.67° C | 74% | 1017.2 hPa | 0 mm | - | - | - |
| 1787377268 | 26.67° C | 74% | 1017.4 hPa | 0 mm | 0 m/s | - | - |
| 1787375960 | 27.22° C | 72% | 1017.2 hPa | 0 mm | - | - | - |
| 1787375468 | 27.22° C | 71% | 1017.3 hPa | 0 mm | 0 m/s | - | - |
| 1787374462 | 27.78° C | 70% | 1016.6 hPa | 0 mm | - | - | - |
| 1787373668 | 27.78° C | 68% | 1016.6 hPa | 0 mm | 0 m/s | - | - |
| 1787372960 | 28.33° C | 68% | 1016.5 hPa | 0 mm | - | - | - |
| 1787371868 | 28.33° C | 68% | 1016.4 hPa | 0 mm | 0 m/s | - | - |
| 1787371460 | 28.33° C | 67% | 1016.3 hPa | 0 mm | - | - | - |
| 1787370068 | 28.89° C | 65% | 1016.3 hPa | 0 mm | 0.45 m/s, 10° | - | - |
| 1787369960 | 28.89° C | 65% | 1016.2 hPa | 0 mm | - | - | - |
| 1787368460 | 30° C | 59% | 1016.3 hPa | 0 mm | - | - | - |
| 1787368448 | 30° C | 59% | 1016.3 hPa | 0 mm | 0.45 m/s, 357° | - | - |
* Rain latest hour (hover to see other rain measurements)
** Current wind speed in m/s (hover to see current wind gust speed)